When you browse on this site, cookies collect data to enhance your experience and personalize the content and advertising you see.
Visit our Privacy Policy to learn more. By continuing to use the site, you agree to this use of cookies and data.
  • în România
  • Lista ţărilor
  • Pe 7 zile
  • Temperatura apei
  • Hartă satelitară
  • Meteo pe hartă
  • Widget-uri
  • user-avatar
    Intrare

    Meteo pe oră la Schiborovo

    Astăzi, 17 Noiembrie, Sâmbătă

    Timp Temperatura Precipitaţii Vânt Presiune Umiditate
    00:00 -2°C° 0 mm 1 m/s 765 mmHg 88%
    01:00 -4°C° 0 mm 2 m/s 765 mmHg 88%
    02:00 -2°C° 0 mm 1 m/s 764 mmHg 89%
    03:00 -5°C° 0 mm 2 m/s 764 mmHg 89%
    04:00 -5°C° 0 mm 2 m/s 764 mmHg 88%
    05:00 -5°C° 0 mm 2 m/s 763 mmHg 87%
    06:00 -5°C° 0 mm 2 m/s 763 mmHg 87%
    07:00 -5°C° 0 mm 2 m/s 762 mmHg 86%
    08:00 -5°C° 0 mm 2 m/s 762 mmHg 86%
    09:00 -5°C° 0 mm 3 m/s 762 mmHg 84%
    10:00 -4°C° 0 mm 3 m/s 761 mmHg 82%
    11:00 -2°C° 0 mm 3 m/s 761 mmHg 79%
    12:00 -1°C° 0 mm 3 m/s 760 mmHg 80%
    13:00 -1°C° 0 mm 3 m/s 759 mmHg 80%
    14:00 -1°C° 0 mm 4 m/s 758 mmHg 81%
    15:00 -1°C° 0.1 mm 4 m/s 758 mmHg 83%
    16:00 0°C° 0.1 mm 3 m/s 757 mmHg 85%
    17:00 -1°C° 0.1 mm 3 m/s 757 mmHg 87%
    18:00 0°C° 0 mm 3 m/s 756 mmHg 88%
    19:00 -1°C° 0 mm 4 m/s 755 mmHg 90%
    20:00 -1°C° 0 mm 4 m/s 754 mmHg 91%
    21:00 0°C° 0.1 mm 3 m/s 754 mmHg 92%
    22:00 0°C° 0.1 mm 3 m/s 753 mmHg 92%
    23:00 0°C° 0.1 mm 3 m/s 752 mmHg 93%

    Mâine, 18 Noiembrie, Duminică

    Timp Temperatura Precipitaţii Vânt Presiune Umiditate
    00:00 0°C° 0.1 mm 3 m/s 751 mmHg 94%
    01:00 0°C° 0.1 mm 3 m/s 751 mmHg 94%
    02:00 0°C° 0.1 mm 3 m/s 750 mmHg 95%
    03:00 0°C° 0.3 mm 3 m/s 750 mmHg 95%
    04:00 0°C° 0.3 mm 3 m/s 749 mmHg 96%
    05:00 +1°C° 0.3 mm 3 m/s 748 mmHg 96%
    06:00 +2°C° 0.1 mm 2 m/s 748 mmHg 96%
    07:00 +2°C° 0.1 mm 2 m/s 748 mmHg 97%
    08:00 +2°C° 0.1 mm 2 m/s 748 mmHg 97%
    09:00 +2°C° 0.1 mm 2 m/s 748 mmHg 97%
    10:00 +2°C° 0.1 mm 2 m/s 748 mmHg 97%
    11:00 +2°C° 0.1 mm 2 m/s 748 mmHg 96%
    12:00 +2°C° 0.2 mm 2 m/s 748 mmHg 97%
    13:00 +2°C° 0.2 mm 2 m/s 748 mmHg 97%
    14:00 +3°C° 0.2 mm 1 m/s 749 mmHg 98%
    15:00 +2°C° 0.1 mm 2 m/s 749 mmHg 98%
    16:00 +2°C° 0.1 mm 2 m/s 749 mmHg 98%
    17:00 +1°C° 0.1 mm 2 m/s 749 mmHg 97%
    18:00 +1°C° 0 mm 2 m/s 750 mmHg 97%
    19:00 +1°C° 0 mm 2 m/s 750 mmHg 97%
    20:00 +1°C° 0 mm 2 m/s 750 mmHg 97%
    21:00 +1°C° 0 mm 2 m/s 751 mmHg 97%
    22:00 +1°C° 0 mm 2 m/s 751 mmHg 96%
    23:00 +1°C° 0 mm 2 m/s 752 mmHg 96%

    Poimâine, 19 Noiembrie, Luni

    Timp Temperatura Precipitaţii Vânt Presiune Umiditate
    00:00 +1°C° 0 mm 2 m/s 752 mmHg 96%
    01:00 +1°C° 0 mm 2 m/s 752 mmHg 95%
    02:00 +1°C° 0 mm 2 m/s 753 mmHg 95%
    03:00 +1°C° 0 mm 2 m/s 753 mmHg 95%
    04:00 +1°C° 0 mm 2 m/s 753 mmHg 94%
    05:00 +1°C° 0 mm 2 m/s 753 mmHg 94%
    06:00 +1°C° 0 mm 2 m/s 754 mmHg 94%
    07:00 0°C° 0 mm 3 m/s 754 mmHg 94%
    08:00 0°C° 0 mm 3 m/s 755 mmHg 94%
    09:00 0°C° 0 mm 3 m/s 755 mmHg 92%
    10:00 0°C° 0 mm 3 m/s 756 mmHg 91%
    11:00 +1°C° 0 mm 3 m/s 756 mmHg 90%
    12:00 +1°C° 0 mm 3 m/s 756 mmHg 90%
    13:00 +1°C° 0 mm 3 m/s 756 mmHg 90%
    14:00 +1°C° 0 mm 2 m/s 757 mmHg 90%
    15:00 +1°C° 0 mm 2 m/s 757 mmHg 91%
    16:00 +1°C° 0 mm 2 m/s 757 mmHg 92%
    17:00 +1°C° 0 mm 2 m/s 757 mmHg 93%
    18:00 +1°C° 0 mm 2 m/s 757 mmHg 93%
    19:00 +1°C° 0 mm 2 m/s 757 mmHg 93%
    20:00 -1°C° 0 mm 2 m/s 757 mmHg 93%
    21:00 -1°C° 0 mm 2 m/s 757 mmHg 94%
    22:00 -1°C° 0 mm 2 m/s 757 mmHg 94%
    23:00 -1°C° 0 mm 2 m/s 757 mmHg 94%

    20 Noiembrie, Marţi

    Timp Temperatura Precipitaţii Vânt Presiune Umiditate
    00:00 -1°C° 0 mm 2 m/s 757 mmHg 95%
    01:00 -1°C° 0 mm 2 m/s 757 mmHg 95%
    02:00 -1°C° 0 mm 2 m/s 757 mmHg 95%
    03:00 0°C° 0 mm 1 m/s 756 mmHg 95%
    04:00 0°C° 0 mm 1 m/s 756 mmHg 95%
    05:00 0°C° 0 mm 1 m/s 756 mmHg 96%
    06:00 0°C° 0 mm 1 m/s 756 mmHg 96%
    07:00 0°C° 0 mm 1 m/s 755 mmHg 96%
    08:00 0°C° 0 mm 1 m/s 755 mmHg 96%
    09:00 0°C° 0 mm 1 m/s 755 mmHg 93%
    10:00 +1°C° 0 mm 1 m/s 755 mmHg 90%
    11:00 +1°C° 0 mm 1 m/s 755 mmHg 88%
    12:00 +1°C° 0 mm 1 m/s 754 mmHg 88%
    13:00 +1°C° 0 mm 1 m/s 754 mmHg 88%
    14:00 +1°C° 0 mm 1 m/s 754 mmHg 88%
    15:00 +1°C° 0 mm 1 m/s 753 mmHg 90%
    16:00 0°C° 0 mm 1 m/s 753 mmHg 92%
    17:00 0°C° 0 mm 1 m/s 753 mmHg 94%
    18:00 0°C° 0 mm 1 m/s 753 mmHg 94%
    19:00 0°C° 0 mm 1 m/s 753 mmHg 94%
    20:00 0°C° 0 mm 1 m/s 753 mmHg 94%
    21:00 0°C° 0 mm 1 m/s 752 mmHg 94%
    22:00 0°C° 0 mm 1 m/s 752 mmHg 95%
    23:00 0°C° 0 mm 1 m/s 752 mmHg 95%

    21 Noiembrie, Miercuri

    Timp Temperatura Precipitaţii Vânt Presiune Umiditate
    00:00 -1°C° 0 mm 1 m/s 752 mmHg 95%
    01:00 -1°C° 0 mm 1 m/s 752 mmHg 95%
    02:00 -1°C° 0 mm 1 m/s 752 mmHg 95%
    03:00 -2°C° 0 mm 1 m/s 752 mmHg 96%
    04:00 -2°C° 0 mm 1 m/s 752 mmHg 96%
    05:00 -2°C° 0 mm 1 m/s 752 mmHg 96%
    06:00 -2°C° 0 mm 1 m/s 752 mmHg 95%
    07:00 -3°C° 0 mm 1 m/s 752 mmHg 95%
    08:00 -3°C° 0 mm 1 m/s 752 mmHg 94%
    09:00 -2°C° 0 mm 1 m/s 752 mmHg 91%
    10:00 -3°C° 0 mm 2 m/s 753 mmHg 87%
    11:00 -2°C° 0 mm 2 m/s 753 mmHg 83%
    12:00 -2°C° 0 mm 2 m/s 753 mmHg 82%
    13:00 -2°C° 0 mm 2 m/s 753 mmHg 81%
    14:00 -2°C° 0 mm 2 m/s 753 mmHg 80%
    15:00 -2°C° 0 mm 2 m/s 753 mmHg 82%
    16:00 -2°C° 0 mm 2 m/s 754 mmHg 83%
    17:00 -2°C° 0 mm 2 m/s 754 mmHg 84%
    18:00 -2°C° 0 mm 2 m/s 754 mmHg 85%
    19:00 -2°C° 0 mm 2 m/s 754 mmHg 85%
    20:00 0°C° 0 mm 1 m/s 754 mmHg 85%
    21:00 0°C° 0 mm 1 m/s 754 mmHg 85%
    22:00 0°C° 0 mm 1 m/s 755 mmHg 85%
    23:00 0°C° 0 mm 1 m/s 755 mmHg 86%

    22 Noiembrie, Joi

    Timp Temperatura Precipitaţii Vânt Presiune Umiditate
    00:00 0°C° 0 mm 1 m/s 755 mmHg 85%
    01:00 -2°C° 0 mm 2 m/s 755 mmHg 84%
    02:00 -2°C° 0 mm 2 m/s 755 mmHg 83%
    03:00 -3°C° 0 mm 2 m/s 755 mmHg 84%
    04:00 -3°C° 0 mm 2 m/s 755 mmHg 84%
    05:00 -3°C° 0 mm 2 m/s 755 mmHg 85%
    06:00 -3°C° 0 mm 2 m/s 755 mmHg 85%
    07:00 -4°C° 0 mm 3 m/s 754 mmHg 85%
    08:00 -4°C° 0 mm 3 m/s 754 mmHg 85%
    09:00 -4°C° 0 mm 3 m/s 754 mmHg 84%
    10:00 -2°C° 0 mm 3 m/s 754 mmHg 82%
    11:00 -2°C° 0 mm 3 m/s 754 mmHg 80%
    12:00 -2°C° 0 mm 3 m/s 754 mmHg 80%
    13:00 -3°C° 0 mm 4 m/s 754 mmHg 81%
    14:00 -3°C° 0 mm 4 m/s 754 mmHg 81%
    15:00 -2°C° 0 mm 3 m/s 754 mmHg 82%
    16:00 -2°C° 0 mm 3 m/s 755 mmHg 84%
    17:00 -2°C° 0 mm 3 m/s 755 mmHg 85%
    18:00 -2°C° 0 mm 3 m/s 755 mmHg 87%
    19:00 -4°C° 0 mm 3 m/s 755 mmHg 89%
    20:00 -3°C° 0 mm 2 m/s 755 mmHg 91%
    21:00 -3°C° 0 mm 2 m/s 755 mmHg 92%
    22:00 -3°C° 0 mm 2 m/s 755 mmHg 93%
    23:00 -3°C° 0 mm 2 m/s 755 mmHg 95%
    Arată mai mult